Вернуться в каталог

THORAD DELTA 1 DEB

АктивенSSO
NORAD 42592·DEBRIS·🇺🇸 United States

Запущен Nov 15, 1974 с Vandenberg Space Force Base

Loading…

Ближайшие Пролёты (ближайшие 24 часа)

TLE

УстаревшееSource: Space-Track

Эпоха: Sep 1, 2026, 19:09 UTC

1 42592U 74089CW  26244.79819242  .00000006  00000-0  33671-3 0  9999
2 42592 101.8694 195.3361 0033867  93.8618 266.6325 12.50321595542311

Отслеживайте THORAD DELTA 1 DEB в реальном времени с AllMySat

Download on the App Store